This is the latest recevied weather packets stored in our database for station/object DG9VH-13. If no packets are shown the sender has not sent any weather packets the latest 10 day(s).
| Time | Temp. | Humidity | Pressure | Rain* | Wind** | Luminosity | Snow |
|---|---|---|---|---|---|---|---|
| 1788212403 | 18.33° C | 68% | 1002.9 hPa | - | - | - | - |
| 1788211804 | 18.89° C | 66% | 1002.7 hPa | - | - | - | - |
| 1788211201 | 18.89° C | 65% | 1002.6 hPa | - | - | - | - |
| 1788210603 | 18.89° C | 64% | 1002.5 hPa | - | - | - | - |
| 1788210001 | 18.89° C | 64% | 1002.4 hPa | - | - | - | - |
| 1788209401 | 18.89° C | 64% | 1002.4 hPa | - | - | - | - |
| 1788208801 | 18.89° C | 64% | 1002.2 hPa | - | - | - | - |
| 1788208202 | 18.89° C | 64% | 1002.2 hPa | - | - | - | - |
| 1788207602 | 18.89° C | 66% | 1002.1 hPa | - | - | - | - |
| 1788207004 | 18.89° C | 67% | 1001.9 hPa | - | - | - | - |
| 1788206400 | 19.44° C | 67% | 1001.9 hPa | - | - | - | - |
| 1788205803 | 19.44° C | 66% | 1001.8 hPa | - | - | - | - |
| 1788205201 | 20° C | 66% | 1001.7 hPa | - | - | - | - |
| 1788204601 | 20° C | 66% | 1001.5 hPa | - | - | - | - |
| 1788204001 | 19.44° C | 67% | 1001.4 hPa | - | - | - | - |
| 1788203401 | 19.44° C | 67% | 1001.3 hPa | - | - | - | - |
| 1788202802 | 19.44° C | 66% | 1001.5 hPa | - | - | - | - |
| 1788202201 | 19.44° C | 67% | 1001.4 hPa | - | - | - | - |
| 1788201601 | 20° C | 66% | 1001.1 hPa | - | - | - | - |
| 1788201001 | 20° C | 67% | 1001 hPa | - | - | - | - |
| 1788200401 | 20° C | 65% | 1000.7 hPa | - | - | - | - |
| 1788199801 | 20.56° C | 65% | 1000.6 hPa | - | - | - | - |
| 1788199201 | 20.56° C | 64% | 1000.6 hPa | - | - | - | - |
| 1788198602 | 21.67° C | 56% | 1000.3 hPa | - | - | - | - |
| 1788198001 | 21.67° C | 52% | - | - | - | - | - |
* Rain since midnight (hover to see other rain measurements)
** Current wind speed in m/s (hover to see current wind gust speed)